[[{"header":{"parameterUnit":"m.s-1","parameterCategory":1,"la1":30.2991,"la2":30.254,"lo1":-89.0895,"lo2":-89.0444,"dy":0.0017,"dx":0.0017,"nx":28,"ny":28,"refTime":"2024-03-23T09:00:00:Z","depth":0,"parameterNumber":2,"parameterNumberName":"U-component_of_WINDS"},"data":[0,0,0,0,0,0,0,0,0,0,0,0,0,0,0,0,0,0,0,0,0,0,0,0,0,0,0,0,0,0,0,0,0,0,0,0,0,0,0,0,0,0,0,0,0,0,0,0,0,0,0,0,0,0,0,0,0,0,4.622,4.6221,0,4.6282,4.6282,4.6283,4.6214,4.6211,4.6208,4.6206,4.6268,4.6272,4.6276,0,0,0,0,0,0,0,0,0,0,0,0,0,4.6044,4.6048,4.622,4.6221,4.6222,4.6282,4.6282,4.6283,4.6214,4.6211,4.6208,4.6205,4.6267,4.6272,4.6277,0,0,0,0,0,0,0,0,0,0,0,0,0,4.6115,4.6049,4.622,4.6195,4.6193,4.6282,4.6283,4.6284,4.6215,4.6211,4.6207,4.6203,4.6265,4.6271,4.6277,4.6394,0,0,4.6296,4.6299,0,0,0,0,0,0,0,0,4.6111,4.6121,4.6198,4.6197,4.6195,4.6236,4.6243,4.6321,4.6216,4.6206,4.6206,4.6201,4.6261,4.6267,4.6287,4.6397,4.6399,4.6297,4.63,4.6303,4.6305,0,0,0,0,0,0,0,4.6106,4.6118,4.6245,4.6199,4.6197,4.618,4.6186,4.6257,4.6255,4.6207,4.6202,4.621,4.6259,4.6281,4.6288,4.64,4.6296,4.6302,4.6306,4.6308,4.6611,4.6615,0,0,0,0,0,0,4.6104,4.6115,4.6243,4.6246,4.6142,4.6187,4.6193,4.6227,4.6254,4.6254,4.6214,4.6207,4.6273,4.6281,4.629,4.6429,4.6303,4.6309,4.6312,4.6607,4.6612,4.6617,0,0,0,0,0,0,4.61,4.6116,4.624,4.6179,4.6194,4.6194,4.6232,4.623,4.6252,4.6259,4.6258,4.6237,4.627,4.6281,4.6369,4.6431,4.6311,4.6317,4.6601,4.6608,4.6614,4.6709,0,0,0,0,0,0,4.6096,4.6115,4.6159,4.6181,4.6197,4.6318,4.6236,4.6234,4.6263,4.6255,4.628,4.6281,4.6268,4.636,4.6375,4.6437,4.6322,4.6596,4.6604,4.6612,4.67,4.6718,4.6733,0,0,0,0,0,4.609,4.6183,4.6162,4.6178,4.6252,4.6322,4.6331,4.6315,4.6268,4.6313,4.6317,4.628,4.6422,4.637,4.6386,4.6451,4.6592,4.6602,4.6612,4.6693,4.6714,4.6733,0,0,0,0,0,0,4.6168,4.6185,4.6162,4.6265,4.6293,4.631,4.6366,4.6338,4.6379,4.6369,4.6347,4.6353,4.6447,4.6457,4.6399,4.6566,4.6499,4.6513,4.6555,4.6576,4.6592,4.6588,4.6327,0,0,0,0,0,4.6197,4.6252,4.6264,4.6354,4.6369,4.6366,4.6395,4.638,4.6408,4.6419,4.643,4.6458,4.6509,4.6543,4.659,4.6702,4.6707,4.6754,4.677,4.6784,4.6796,4.6857,4.6879,4.6649,4.6649,4.6649,0,0,4.6258,4.6274,4.631,4.637,4.639,4.6448,4.6376,4.644,4.6483,4.6428,4.6512,4.6522,4.6552,4.6653,4.6698,4.6664,4.6861,4.6796,4.6807,4.6812,4.6869,4.6891,4.6911,4.6655,4.6654,4.6653,0,0,4.6399,4.6417,4.6494,4.6516,4.6547,4.6544,4.6563,4.6585,4.6589,4.6674,4.6635,4.6686,4.6773,4.6797,4.682,4.6973,4.694,4.6989,4.7074,4.7134,4.7152,4.7168,4.7224,4.7244,4.7001,4.7001,4.7001,0,4.6471,4.6557,4.6537,4.6605,4.6633,4.6587,4.6666,4.6688,4.6733,4.6754,4.6716,4.6827,4.6843,4.695,4.6987,4.7008,4.7029,4.6986,4.7151,4.7167,4.7182,4.7234,4.7255,4.7007,4.7006,4.7005,4.7005,0,4.6644,4.6704,4.6763,4.6809,4.6843,4.6916,4.6909,4.6946,4.6929,4.693,4.7017,4.7036,4.7087,4.7111,4.7094,4.7216,4.7194,4.7155,4.7087,4.721,4.7259,4.7279,4.7015,4.7013,4.7011,4.701,0,0,4.6835,4.687,4.6892,4.6913,4.6945,4.6991,4.7063,4.7113,4.7146,4.7179,4.7239,4.7316,4.7279,4.7306,4.7292,4.7344,4.7466,4.7298,4.7298,4.7329,4.7602,4.7632,4.7656,4.7444,4.7448,4.7451,4.76,0,4.6977,4.7101,4.7087,4.7205,4.7261,4.722,4.7282,4.7309,4.7313,4.7361,4.7365,4.742,4.7367,4.7384,4.7434,4.744,4.752,4.7429,4.75,4.7503,4.7494,4.7681,4.7713,4.7853,4.7619,4.7622,4.7624,0,4.7159,4.72,4.7324,4.7349,4.7372,4.7429,4.7475,4.7521,4.7551,4.755,4.7582,4.7558,4.7631,4.7562,4.7662,4.7601,4.7629,4.7637,4.7642,4.7648,4.7571,4.7693,4.7897,4.7918,4.7654,4.7652,4.765,0,4.7287,4.7373,4.7459,4.7478,4.7509,4.755,4.7564,4.759,4.7622,4.7663,4.7683,4.7731,4.7758,4.7796,4.7787,4.7737,4.789,4.782,4.7891,4.7892,4.7925,4.7923,4.8137,4.7943,4.7943,4.7942,4.7942,0,4.7448,4.7526,4.7517,4.757,4.7657,4.764,4.7726,4.7736,4.776,4.7814,4.7781,4.7833,4.7817,4.7869,4.7862,4.7947,4.7958,4.796,4.7957,4.7963,4.7963,4.7982,4.7972,4.7948,4.7947,4.7946,4.7945,0,4.7605,4.7603,4.7694,4.7716,4.7724,4.7787,4.7806,4.7856,4.7858,4.7927,4.7943,4.7945,4.8004,4.7999,4.8065,4.806,4.8165,4.8151,4.8155,4.8152,4.8224,4.8218,4.8457,4.8488,4.8274,4.8276,4.8278,0,4.7708,4.7768,4.7797,4.7831,4.7849,4.7905,4.7937,4.7924,4.7959,4.7999,4.8045,4.8101,4.8145,4.8241,4.8249,4.83,4.8287,4.8367,4.8294,4.8299,4.8289,4.8285,4.8292,4.8381,4.8384,4.8386,4.8387,0,4.7892,4.7888,4.7936,4.7985,4.8025,4.8063,4.8097,4.8127,4.8117,4.8159,4.8219,4.8253,4.8322,4.8378,4.8427,4.8442,4.8414,4.8411,4.843,4.8437,4.8437,4.8439,4.8195,4.8405,4.8403,4.8402,4.8401,4.84,4.8026,4.8077,4.8106,4.8162,4.8186,4.8219,4.8268,4.8276,4.8326,4.8381,4.837,4.8438,4.8468,4.853,4.8551,4.8604,4.8575,4.8603,4.861,4.8617,4.8626,4.8429,4.8613,4.8612,4.8612,4.8611,4.8611,0,4.8208,4.8225,4.8276,4.8326,4.837,4.834,4.8377,4.8416,4.8476,4.8506,4.8551,4.8621,4.8676,4.8689,4.8742,4.8782,4.8771,4.8797,4.8794,4.8798,4.8648,4.8627,4.8805,4.8805,4.8805,4.8805,4.8805,4.8805,4.8308,4.8394,4.8394,4.8492,4.8508,4.8575,4.8598,4.8629,4.8653,4.8733,4.8779,4.8787,4.8811,4.8866,4.8915,4.8918,4.8939,4.8971,4.8968,4.8828,4.8808,4.879,4.8769,4.8975,4.8975,4.9113,4.9114,4.9115]},{"header":{"parameterUnit":"m.s-1","parameterCategory":1,"la1":30.2991,"la2":30.254,"lo1":-89.0895,"lo2":-89.0444,"dy":0.0017,"dx":0.0017,"nx":28,"ny":28,"refTime":"2024-03-23T09:00:00:Z","depth":0,"parameterNumber":3,"parameterNumberName":"V-component_of_WINDS"},"data":[0,0,0,0,0,0,0,0,0,0,0,0,0,0,0,0,0,0,0,0,0,0,0,0,0,0,0,0,0,0,0,0,0,0,0,0,0,0,0,0,0,0,0,0,0,0,0,0,0,0,0,0,0,0,0,0,0,0,-3.2651,-3.2651,0,-3.2689,-3.269,-3.269,-3.2647,-3.2645,-3.2644,-3.2642,-3.2682,-3.2684,-3.2687,0,0,0,0,0,0,0,0,0,0,0,0,0,-3.2541,-3.2543,-3.2651,-3.2651,-3.2652,-3.2689,-3.269,-3.269,-3.2647,-3.2645,-3.2643,-3.2642,-3.2681,-3.2684,-3.2687,0,0,0,0,0,0,0,0,0,0,0,0,0,-3.2585,-3.2544,-3.2651,-3.2635,-3.2634,-3.2689,-3.269,-3.269,-3.2648,-3.2645,-3.2643,-3.2641,-3.268,-3.2684,-3.2688,-3.276,0,0,-3.2699,-3.2701,0,0,0,0,0,0,0,0,-3.2583,-3.2589,-3.2637,-3.2636,-3.2635,-3.2661,-3.2665,-3.2714,-3.2648,-3.2642,-3.2642,-3.2639,-3.2677,-3.2681,-3.2693,-3.2762,-3.2764,-3.27,-3.2702,-3.2704,-3.2705,0,0,0,0,0,0,0,-3.258,-3.2587,-3.2666,-3.2637,-3.2636,-3.2626,-3.263,-3.2674,-3.2673,-3.2643,-3.264,-3.2645,-3.2676,-3.269,-3.2694,-3.2764,-3.27,-3.2703,-3.2705,-3.2707,-3.2896,-3.2899,0,0,0,0,0,0,-3.2578,-3.2585,-3.2665,-3.2667,-3.2602,-3.263,-3.2634,-3.2655,-3.2672,-3.2673,-3.2647,-3.2643,-3.2684,-3.269,-3.2695,-3.2782,-3.2704,-3.2707,-3.2709,-3.2894,-3.2897,-3.29,0,0,0,0,0,0,-3.2576,-3.2586,-3.2663,-3.2625,-3.2634,-3.2635,-3.2658,-3.2657,-3.2671,-3.2675,-3.2675,-3.2661,-3.2683,-3.269,-3.2745,-3.2783,-3.2709,-3.2712,-3.289,-3.2895,-3.2898,-3.2957,0,0,0,0,0,0,-3.2573,-3.2585,-3.2612,-3.2626,-3.2636,-3.2712,-3.2661,-3.266,-3.2678,-3.2673,-3.2689,-3.2689,-3.2681,-3.2739,-3.2749,-3.2787,-3.2715,-3.2887,-3.2892,-3.2897,-3.2952,-3.2963,-3.2972,0,0,0,0,0,-3.2569,-3.2627,-3.2614,-3.2624,-3.2671,-3.2714,-3.272,-3.271,-3.2681,-3.2709,-3.2712,-3.2689,-3.2778,-3.2745,-3.2755,-3.2796,-3.2885,-3.2891,-3.2897,-3.2947,-3.2961,-3.2972,0,0,0,0,0,0,-3.2618,-3.2628,-3.2614,-3.2678,-3.2696,-3.2707,-3.2741,-3.2724,-3.275,-3.2744,-3.273,-3.2734,-3.2793,-3.28,-3.2764,-3.2868,-3.2826,-3.2835,-3.2861,-3.2874,-3.2884,-3.2881,-3.2719,0,0,0,0,0,-3.2636,-3.267,-3.2678,-3.2733,-3.2743,-3.2741,-3.2759,-3.275,-3.2768,-3.2775,-3.2782,-3.28,-3.2832,-3.2853,-3.2883,-3.2953,-3.2956,-3.2986,-3.2996,-3.3004,-3.3012,-3.305,-3.3064,-3.292,-3.292,-3.292,0,0,-3.2673,-3.2684,-3.2706,-3.2743,-3.2756,-3.2792,-3.2747,-3.2787,-3.2814,-3.2781,-3.2833,-3.284,-3.2859,-3.2922,-3.295,-3.2929,-3.3052,-3.3012,-3.3018,-3.3021,-3.3058,-3.3072,-3.3084,-3.2924,-3.2923,-3.2923,0,0,-3.2761,-3.2772,-3.282,-3.2833,-3.2853,-3.2852,-3.2863,-3.2878,-3.288,-3.2933,-3.2909,-3.2941,-3.2997,-3.3012,-3.3027,-3.3122,-3.3102,-3.3132,-3.3185,-3.3223,-3.3234,-3.3244,-3.3279,-3.3292,-3.3139,-3.3139,-3.314,0,-3.2805,-3.2858,-3.2847,-3.2889,-3.2907,-3.2879,-3.2928,-3.2942,-3.297,-3.2983,-3.296,-3.3029,-3.304,-3.3107,-3.3131,-3.3143,-3.3157,-3.313,-3.3233,-3.3243,-3.3253,-3.3286,-3.3299,-3.3143,-3.3143,-3.3142,-3.3142,0,-3.2913,-3.295,-3.2987,-3.3016,-3.3037,-3.3083,-3.3079,-3.3102,-3.3091,-3.3093,-3.3148,-3.316,-3.3192,-3.3207,-3.3197,-3.3273,-3.326,-3.3235,-3.3193,-3.327,-3.3301,-3.3313,-3.3148,-3.3147,-3.3146,-3.3145,0,0,-3.3031,-3.3053,-3.3067,-3.308,-3.31,-3.313,-3.3174,-3.3206,-3.3227,-3.3248,-3.3286,-3.3334,-3.3312,-3.3329,-3.332,-3.3354,-3.343,-3.3325,-3.3325,-3.3345,-3.3516,-3.3535,-3.3549,-3.3417,-3.3419,-3.3421,-3.3515,0,-3.3119,-3.3196,-3.3188,-3.3262,-3.3297,-3.3272,-3.3311,-3.3328,-3.3331,-3.3362,-3.3365,-3.3399,-3.3367,-3.3377,-3.3409,-3.3414,-3.3464,-3.3407,-3.3452,-3.3454,-3.3448,-3.3565,-3.3585,-3.3673,-3.3526,-3.3528,-3.353,0,-3.3232,-3.3258,-3.3335,-3.3352,-3.3366,-3.3402,-3.3431,-3.346,-3.348,-3.3479,-3.35,-3.3486,-3.3531,-3.3489,-3.3552,-3.3514,-3.3532,-3.3537,-3.354,-3.3544,-3.3497,-3.3573,-3.37,-3.3714,-3.3549,-3.3547,-3.3546,0,-3.3311,-3.3365,-3.3419,-3.3431,-3.3451,-3.3477,-3.3486,-3.3503,-3.3524,-3.355,-3.3563,-3.3594,-3.3611,-3.3635,-3.363,-3.3599,-3.3696,-3.3652,-3.3697,-3.3698,-3.3719,-3.3717,-3.3851,-3.373,-3.373,-3.3729,-3.3729,0,-3.3411,-3.346,-3.3455,-3.3488,-3.3543,-3.3533,-3.3587,-3.3593,-3.3609,-3.3644,-3.3624,-3.3657,-3.3648,-3.3681,-3.3677,-3.3731,-3.3739,-3.374,-3.3739,-3.3742,-3.3742,-3.3754,-3.3748,-3.3733,-3.3732,-3.3732,-3.3731,0,-3.3509,-3.3507,-3.3565,-3.3579,-3.3584,-3.3624,-3.3637,-3.3668,-3.367,-3.3714,-3.3724,-3.3727,-3.3764,-3.3762,-3.3804,-3.3802,-3.3869,-3.386,-3.3863,-3.3861,-3.3906,-3.3903,-3.4053,-3.4073,-3.3938,-3.3939,-3.394,0,-3.3572,-3.361,-3.3629,-3.365,-3.3662,-3.3697,-3.3718,-3.371,-3.3733,-3.3759,-3.3788,-3.3824,-3.3852,-3.3914,-3.392,-3.3953,-3.3945,-3.3996,-3.395,-3.3953,-3.3947,-3.3945,-3.3949,-3.4005,-3.4006,-3.4007,-3.4008,0,-3.3686,-3.3684,-3.3715,-3.3746,-3.3772,-3.3796,-3.3818,-3.3837,-3.3832,-3.3858,-3.3897,-3.3919,-3.3963,-3.4,-3.4031,-3.4042,-3.4025,-3.4023,-3.4035,-3.4039,-3.404,-3.4041,-3.3888,-3.4019,-3.4018,-3.4017,-3.4017,-3.4016,-3.377,-3.3802,-3.3821,-3.3856,-3.3872,-3.3893,-3.3924,-3.393,-3.3962,-3.3998,-3.3991,-3.4035,-3.4055,-3.4096,-3.4109,-3.4144,-3.4126,-3.4143,-3.4148,-3.4153,-3.4158,-3.4034,-3.415,-3.4149,-3.4149,-3.4149,-3.4148,0,-3.3883,-3.3894,-3.3927,-3.3959,-3.3987,-3.3969,-3.3993,-3.4018,-3.4056,-3.4076,-3.4105,-3.415,-3.4186,-3.4195,-3.423,-3.4256,-3.4249,-3.4265,-3.4263,-3.4266,-3.4172,-3.4158,-3.427,-3.427,-3.427,-3.427,-3.427,-3.427,-3.3946,-3.4,-3.4,-3.4062,-3.4073,-3.4116,-3.4131,-3.4152,-3.4167,-3.4219,-3.4249,-3.4255,-3.4271,-3.4307,-3.4339,-3.4341,-3.4355,-3.4374,-3.4373,-3.4285,-3.4273,-3.4261,-3.4248,-3.4377,-3.4377,-3.4465,-3.4466,-3.4466]}]]